Weather History for Cordova, AK

Change the Weather History Date:

Saturday, July 13, 2013

  Actual Average Record
Temperature  
Mean Temperature 53 °F -  
Max Temperature 57 °F 61 °F 76 °F (1956)
Min Temperature 51 °F 46 °F 36 °F (1961)
Degree Days  
Heating Degree Days 12    
Growing Degree Days 3 (Base 50)    
Moisture  
Dew Point 52 °F    
Average Humidity 94    
Maximum Humidity 100    
Minimum Humidity 88    
Precipitation  
Precipitation 0.11 in - - ()
Sea Level Pressure  
Sea Level Pressure 30.15 in    
Wind  
Wind Speed 1 mph (East)    
Max Wind Speed 6 mph    
Max Gust Speed -    
Visibility 4 miles    
Events Rain    
Averages and records for this station are not official NWS values.
T = Trace of Precipitation, MM = Missing Value Source: NWS Daily Summary

Daily Weather History Graph

Daily Weather History Graph

Search for Another Location

Airport:

Trip Planner

Search our weather history database for the weather conditions in past years. The results will help you decide how hot, cold, wet, or windy it might be!

Date:

Astronomy

Jul. 13, 2013 Rise Set
Actual Time 4:37 AM AKDT 10:56 PM AKDT
Civil Twilight 3:11 AM AKDT 12:20 AM AKDT
Nautical Twilight Sun does not rise Sun does not rise
Astronomical Twilight Sun does not rise Sun does not rise
Moon 11:54 AM AKDT (7/13) 11:43 PM AKDT (7/13)
Length of Visible Light 21h 09m
Length of Day
18h 18m
Waxing Crescent, 27% of the Moon is Illuminated
Jul 13
Waxing Crescent
Jul 15
First Quarter
Jul 22
Full
Jul 29
Last Quarter
Aug 6
New

Hourly Weather History & Observations

Time (AKDT) Temp. Dew Point Humidity Pressure Visibility Wind Dir Wind Speed Gust Speed Precip Events Conditions
12:06 AM 53.6 °F 51.8 °F 94% 30.04 in 4.0 mi Calm Calm - N/A   Overcast
12:53 AM 53.1 °F 51.1 °F 93% 30.06 in 6.0 mi Calm Calm - N/A   Overcast
1:22 AM 51.8 °F 51.8 °F 100% 30.06 in 10.0 mi Calm Calm - N/A   Overcast
1:53 AM 53.1 °F 51.1 °F 93% 30.06 in 10.0 mi Calm Calm - N/A   Overcast
2:14 AM 53.6 °F 51.8 °F 94% 30.06 in 10.0 mi Calm Calm - N/A   Overcast
2:53 AM 53.1 °F 51.1 °F 93% 30.07 in 8.0 mi Calm Calm - N/A   Overcast
3:11 AM 51.8 °F 51.8 °F 100% 30.06 in 2.5 mi Calm Calm - N/A   Overcast
3:53 AM 51.1 °F 50.0 °F 96% 30.08 in 2.5 mi Calm Calm - 0.01 in   Overcast
4:17 AM 51.8 °F 50.0 °F 94% 30.07 in 3.0 mi NE 4.6 mph - N/A   Overcast
4:53 AM 51.1 °F 50.0 °F 96% 30.07 in 4.0 mi NE 3.5 mph - 0.00 in   Overcast
5:53 AM 51.1 °F 48.9 °F 92% 30.08 in 10.0 mi NE 3.5 mph - N/A   Overcast
6:53 AM 51.1 °F 48.9 °F 92% 30.09 in 7.0 mi Calm Calm - N/A   Overcast
7:10 AM 51.8 °F 48.2 °F 88% 30.09 in 2.5 mi Calm Calm - N/A   Overcast
7:18 AM 51.8 °F 48.2 °F 88% 30.09 in 3.0 mi Calm Calm - N/A   Overcast
7:31 AM 51.8 °F 50.0 °F 94% 30.09 in 2.5 mi Calm Calm - N/A   Overcast
7:50 AM 51.8 °F 50.0 °F 94% 30.10 in 2.0 mi Calm Calm - 0.01 in   Overcast
7:53 AM 52.0 °F 50.0 °F 93% 30.10 in 2.0 mi Calm Calm - 0.01 in   Overcast
8:14 AM 51.8 °F 50.0 °F 94% 30.10 in 2.5 mi Calm Calm - N/A   Overcast
8:21 AM 51.8 °F 50.0 °F 94% 30.10 in 3.0 mi Calm Calm - N/A   Overcast
8:36 AM 51.8 °F 51.8 °F 100% 30.10 in 2.5 mi Calm Calm - N/A   Overcast
8:53 AM 52.0 °F 51.1 °F 97% 30.11 in 2.5 mi Calm Calm - N/A   Overcast
9:21 AM 53.6 °F 51.8 °F 94% 30.11 in 1.8 mi Calm Calm - N/A   Overcast
9:53 AM 54.0 °F 52.0 °F 93% 30.12 in 2.0 mi NNE 3.5 mph - N/A   Overcast
10:02 AM 53.6 °F 51.8 °F 94% 30.12 in 1.8 mi Calm Calm - N/A   Overcast
10:07 AM 53.6 °F 51.8 °F 94% 30.12 in 2.0 mi Calm Calm - N/A   Overcast
10:09 AM 53.6 °F 51.8 °F 94% 30.12 in 1.8 mi Calm Calm - N/A   Overcast
10:33 AM 55.4 °F 53.6 °F 94% 30.12 in 2.5 mi Calm Calm - N/A   Overcast
10:51 AM 55.4 °F 53.6 °F 94% 30.13 in 4.0 mi Calm Calm - 0.01 in   Overcast
10:53 AM 55.0 °F 53.1 °F 93% 30.13 in 4.0 mi Calm Calm - 0.01 in   Overcast
11:14 AM 55.4 °F 53.6 °F 94% 30.13 in 2.5 mi Calm Calm - N/A   Overcast
11:26 AM 55.4 °F 51.8 °F 88% 30.13 in 4.0 mi East 3.5 mph - N/A   Overcast
11:34 AM 55.4 °F 53.6 °F 94% 30.13 in 1.8 mi East 3.5 mph - N/A   Overcast
11:53 AM 55.0 °F 53.1 °F 93% 30.14 in 1.8 mi Calm Calm - N/A   Overcast
11:58 AM 55.4 °F 53.6 °F 94% 30.14 in 2.0 mi Calm Calm - N/A   Overcast
12:08 PM 55.4 °F 53.6 °F 94% 30.14 in 1.8 mi SE 3.5 mph - N/A   Overcast
12:16 PM 53.6 °F 51.8 °F 94% 30.15 in 1.5 mi Calm Calm - N/A   Overcast
12:47 PM 55.4 °F 53.6 °F 94% 30.15 in 2.0 mi Calm Calm - 0.01 in   Overcast
12:48 PM 55.0 °F 53.1 °F 93% 30.15 in 2.0 mi Calm Calm - 0.01 in   Overcast
12:55 PM 55.4 °F 53.6 °F 94% 30.15 in 2.0 mi Calm Calm - N/A   Overcast
1:04 PM 55.4 °F 53.6 °F 94% 30.15 in 3.0 mi Calm Calm - N/A   Overcast
1:12 PM 55.4 °F 53.6 °F 94% 30.15 in 4.0 mi Calm Calm - N/A   Overcast
1:22 PM 55.4 °F 53.6 °F 94% 30.16 in 2.5 mi South 3.5 mph - N/A   Overcast
1:33 PM 55.4 °F 53.6 °F 94% 30.16 in 4.0 mi South 3.5 mph - N/A   Overcast
1:53 PM 55.9 °F 53.1 °F 90% 30.17 in 10.0 mi Calm Calm - N/A   Overcast
2:53 PM 55.0 °F 53.1 °F 93% 30.18 in 3.0 mi ESE 3.5 mph - 0.00 in Rain Light Rain
3:53 PM 55.9 °F 53.1 °F 90% 30.19 in 9.0 mi East 3.5 mph - 0.00 in   Overcast
4:05 PM 55.4 °F 53.6 °F 94% 30.20 in 1.8 mi Calm Calm - 0.00 in Rain Light Rain
4:44 PM 55.4 °F 53.6 °F 94% 30.20 in 2.0 mi Calm Calm - 0.02 in Rain Light Rain
4:53 PM 55.9 °F 54.0 °F 93% 30.20 in 2.0 mi Calm Calm - 0.02 in Rain Light Rain
5:08 PM 55.4 °F 53.6 °F 94% 30.20 in 1.5 mi Calm Calm - 0.01 in Rain Light Rain
5:21 PM 55.4 °F 53.6 °F 94% 30.20 in 2.5 mi Calm Calm - 0.01 in Rain Light Rain
5:53 PM 55.9 °F 54.0 °F 93% 30.21 in 1.8 mi Calm Calm - 0.02 in Rain Light Rain
6:09 PM 55.4 °F 53.6 °F 94% 30.21 in 2.0 mi Calm Calm - 0.00 in Rain Light Rain
6:20 PM 55.4 °F 53.6 °F 94% 30.21 in 1.8 mi Calm Calm - 0.01 in Rain Light Rain
6:23 PM 55.4 °F 53.6 °F 94% 30.21 in 1.8 mi Calm Calm - 0.01 in Rain Light Rain
6:53 PM 55.0 °F 53.1 °F 93% 30.22 in 9.0 mi East 3.5 mph - 0.01 in   Overcast
7:53 PM 55.0 °F 53.1 °F 93% 30.22 in 10.0 mi East 4.6 mph - N/A   Overcast
8:53 PM 53.1 °F 51.1 °F 93% 30.24 in 9.0 mi East 3.5 mph - N/A   Overcast
9:16 PM 53.6 °F 51.8 °F 94% 30.25 in 2.5 mi ENE 5.8 mph - 0.00 in Rain Light Rain
9:38 PM 53.6 °F 51.8 °F 94% 30.25 in 4.0 mi ENE 3.5 mph - 0.00 in   Overcast
9:53 PM 52.0 °F 50.0 °F 93% 30.25 in 3.0 mi ENE 4.6 mph - 0.01 in Rain Light Rain
9:58 PM 51.8 °F 50.0 °F 94% 30.25 in 1.8 mi NE 3.5 mph - 0.00 in Rain Light Rain
10:07 PM 51.8 °F 51.8 °F 100% 30.25 in 2.0 mi Calm Calm - 0.00 in Rain Light Rain
10:17 PM 51.8 °F 50.0 °F 94% 30.25 in 7.0 mi ENE 3.5 mph - 0.00 in   Overcast
10:28 PM 51.8 °F 50.0 °F 94% 30.26 in 10.0 mi Calm Calm - 0.00 in   Overcast
10:53 PM 52.0 °F 50.0 °F 93% 30.27 in 6.0 mi Calm Calm - 0.01 in Rain Light Rain
11:53 PM 52.0 °F 50.0 °F 93% 30.28 in 6.0 mi Calm Calm - N/A   Overcast